Home   Weather   Fremont   Past weeks

Flag for USA Past Weather in Fremont, California, USA — Yesterday and Last 2 Weeks

Now
60 °F

Overcast.


Feels Like: 60 °F
Forecast: 53 / 61 °F
Wind: 12 mph from West

Location: Moffett Field

Current Time: Apr 24, 2017 at 12:06:52 pm

Latest Report: Apr 24, 2017 at 11:37 am


Visibility: 10 mi

Pressure: 30.11 "Hg

Humidity: 67%

Dew Point: 49 °F

Location of FremontLocation

Past Weather in Fremont — Graph

°F

Fremont Temperature Yesterday

Maximum temperature yesterday: 66 °F (at 1:56 pm)
Minimum temperature yesterday: 53 °F (at 1:56 am)
Average temperature yesterday: 59 °F

High & Low Weather Summary for the Past Weeks

 TemperatureHumidityPressure
High76 °F (Apr 21, 3:56 pm)100% (Apr 13, 2:04 am)30.33 "Hg (Apr 13, 2:04 am)
Low43 °F (Apr 10, 6:56 am)22% (Apr 22, 10:56 am)29.92 "Hg (Apr 12, 7:56 pm)
Average58 °F69%30.09 "Hg
* Reported Apr 9 10:56 am — Apr 24 10:56 am, Fremont, Weather by CustomWeather, © 2017

Note: Actual official high and low records may vary slightly from our data, if they occured in-between our weather recording intervals... More about our weather records

Advertising

Fremont Weather History for the Previous 24 Hours

Scroll right to see more
 ConditionsComfort  
Time TempWeatherWind HumidityBarometerVisibility
10:56 am
Mon, Apr 24
59 °FOvercast.6 mph69%30.11 "Hg10 mi
9:56 am58 °FOvercast.10 mph70%30.10 "Hg10 mi
9:29 am58 °FMostly cloudy.3 mph70%30.09 "Hg10 mi
8:56 am57 °FMostly cloudy.6 mph69%30.09 "Hg10 mi
7:56 am55 °FOvercast.3 mph72%30.08 "Hg10 mi
6:56 am55 °FMostly cloudy.No wind72%30.08 "Hg10 mi
5:56 am54 °FOvercast.3 mph74%30.07 "Hg10 mi
4:56 am54 °FOvercast.5 mph74%30.07 "Hg10 mi
4:13 am54 °FMostly cloudy.3 mph74%30.06 "Hg10 mi
3:56 am54 °FMostly cloudy.5 mph74%30.06 "Hg10 mi
3:43 am53 °FPassing clouds.3 mph77%30.05 "Hg10 mi
2:56 am53 °FPassing clouds.3 mph74%30.06 "Hg10 mi
2:18 am53 °FPassing clouds.3 mph77%30.05 "Hg10 mi
1:56 am53 °FClear.7 mph77%30.06 "Hg10 mi
12:56 am53 °FClear.3 mph77%30.06 "Hg10 mi
11:56 pm
Sun, Apr 23
54 °FClear.No wind72%30.06 "Hg10 mi
10:56 pm55 °FClear.3 mph72%30.06 "Hg10 mi
9:56 pm54 °FClear.5 mph74%30.07 "Hg10 mi
8:56 pm56 °FClear.5 mph70%30.05 "Hg10 mi
7:56 pm57 °FClear.9 mph67%30.05 "Hg10 mi
6:56 pm60 °FSunny.8 mph60%30.03 "Hg10 mi
5:56 pm62 °FSunny.12 mph56%30.04 "Hg10 mi
4:56 pm65 °FSunny.10 mph52%30.03 "Hg10 mi
3:56 pm66 °FSunny.10 mph49%30.03 "Hg10 mi
2:56 pm66 °FSunny.13 mph47%30.05 "Hg10 mi
1:56 pm66 °FSunny.10 mph47%30.04 "Hg10 mi
12:56 pm65 °FSunny.10 mph51%30.05 "Hg10 mi
Weather by CustomWeather, © 2017

See weather overviewHow to use our weather pages